Regional Weather Roundup
Issued by NWS

Home | Current Version | Previous Version | Graphics & Text | Print | Product List | Glossary On
Versions: 1 2 3 4 5 6 7 8 9 10 11 12 13 14 15 16 17 18 19 20 21 22 23 24 25 26 27 28 29 30 31 32 33 34 35 36 37 38 39 40 41 42 43 44 45 46 47 48 49 50
000
ASUS45 KABQ 251201
RWRNM
WEATHER ROUNDUP FOR NEW MEXICO
NATIONAL WEATHER SERVICE ALBUQUERQUE NM
500 AM MST SUN JAN 25 2015

NOTE: "FAIR" MEANS FEW OR NO CLOUDS BELOW 12,000 FEET AGL WITH NO
       SIGNIFICANT WEATHER OR OBSTRUCTIONS TO VISION.

      THIS PRODUCT IS RELEASED AS TWO VERSIONS.  ONE VERSION NEAR
      THE TOP OF THE HOUR CONTAINING PRELIMINARY DATA FROM ALBUQUERQUE
      AND OTHER STATIONS.  A FINAL VERSION WITH ADDITIONAL DATA IS
      ISSUED ABOUT 10 MINUTES AFTER THE HOUR.

NMZ501-503-504-510>518-251300-
NORTHWEST PLATEAU/NORTHCENTRAL MOUNTAINS

CITY           SKY/WX    TMP DP  RH WIND       PRES   REMARKS
FARMINGTON     CLEAR     20  15  81 NE3       30.28F
6HR MIN TEMP:  19; 6HR MAX TEMP:  26;

SANTA FE       CLEAR     27  17  66 N10G21    30.23S WCI  17
6HR MIN TEMP:  24; 6HR MAX TEMP:  35;

TAOS           PTCLDY    16   9  73 CALM      30.27R

$$
NMZ402-403-502-505>509-251300-
WESTCENTRAL MOUNTAINS/SOUTHWEST MOUNTAINS

CITY           SKY/WX    TMP DP  RH WIND       PRES   REMARKS
GALLUP         CLEAR     18  14  84 E3        30.29R
6HR MIN TEMP:  17; 6HR MAX TEMP:  25;

GRANTS         CLEAR     19  17  89 NW7       30.30S WCI  10
SILVER CITY    CLEAR     25  18  74 N8        30.22S WCI  16

$$
NMZ407-409-411-412-251300-
SOUTHERN DESERTS

CITY           SKY/WX    TMP DP  RH WIND       PRES   REMARKS
DEMING         PTCLDY    26  21  81 S5        30.20F WCI  20
6HR MIN TEMP:  24; 6HR MAX TEMP:  31;

HOLLOMAN AFB   MOCLDY    26  23  89 SE5       30.18S WCI  20
ALAMOGORDO     MOCLDY    23  21  93 SE6       30.19F WCI  16
T OR C         MOCLDY    31  21  66 NW8       30.21F WCI  23
6HR MIN TEMP:  28; 6HR MAX TEMP:  37;


$$
NMZ519>523-251300-
CENTRAL VALLEYS/CENTRAL HIGHLANDS

CITY           SKY/WX    TMP DP  RH WIND       PRES   REMARKS
ALBUQUERQUE    PTCLDY    27  19  72 CALM      30.26R
6HR MIN TEMP:  25; 6HR MAX TEMP:  39;

MORIARTY ARPT  FAIR      22  18  85 NW6       30.25R WCI  14
6HR MIN TEMP:  21; 6HR MAX TEMP:  34;

CLINES CORNERS CLEAR     24  15  68 NW10      30.19F WCI  14
6HR MIN TEMP:  24; 6HR MAX TEMP:  31;

BELEN          FAIR      27  22  79 N8        30.26R WCI  19
6HR MIN TEMP:  22; 6HR MAX TEMP:  34;

SOCORRO        NOT AVBL

$$
NMZ524>526-539-540-251300-
SOUTHCENTRAL MOUNTAINS

CITY           SKY/WX    TMP DP  RH WIND       PRES   REMARKS
RUIDOSO        NOT AVBL

$$
NMZ527>531-251300-
NORTHEAST HIGHLANDS/NORTHEAST PLAINS

CITY           SKY/WX    TMP DP  RH WIND       PRES   REMARKS
LAS VEGAS      CLEAR     33  15  47 W6        30.20S WCI  28
6HR MIN TEMP:  26; 6HR MAX TEMP:  41;

RATON          PTCLDY    27  20  75 NE7       30.16S WCI  19
6HR MIN TEMP:  26; 6HR MAX TEMP:  36;

CLAYTON        CLEAR     34  25  69 N10       30.17S WCI  26
6HR MIN TEMP:  30; 6HR MAX TEMP:  42;


$$
NMZ532>537-251300-
EASTCENTRAL PLAINS

CITY           SKY/WX    TMP DP  RH WIND       PRES   REMARKS
TUCUMCARI      MIX PCPN  23  20  88 W6        30.18R WCI  16
6HR MIN TEMP:  22; 6HR MAX TEMP:  34; 6HR PCP: TRACE;

CANNON AFB     CLEAR     34  27  75 NE12      30.15F WCI  25
6HR MIN TEMP:  32; 6HR MAX TEMP:  36;

CLOVIS AIRPORT CLEAR     32  25  74 NE9       30.16S WCI  24

$$
NMZ028-029-538-251300-
SOUTHEAST PLAINS

CITY           SKY/WX    TMP DP  RH WIND       PRES   REMARKS
ROSWELL        PTCLDY    31  25  78 N8        30.18R WCI  23
6HR MIN TEMP:  26; 6HR MAX TEMP:  34;

ARTESIA        MOCLDY    32  30  93 N7        30.19R WCI  26
CARLSBAD       CLEAR     34  26  72 NW7       30.15R WCI  28
6HR MIN TEMP:  34; 6HR MAX TEMP:  52;

HOBBS          MOCLDY    32  28  86 NW9       30.16R WCI  24


$$


USA.gov is the U.S. government's official web portal to all federal, state and local government web resources and services.